Los Angeles Downtown, CA

11:56 PM PDT on June 28, 2017 (GMT -0700)
Los Angeles Downtown

Weather History for KCQT - February, 2014

Change the Weather History Date:

Sunday, February 9, 2014

  Actual Average Record
Temperature  
Mean Temperature 61 °F 59 °F  
Max Temperature 67 °F 68 °F 89 °F (2016)
Min Temperature 54 °F 49 °F 33 °F (1891)
Degree Days  
Heating Degree Days 4 7  
Month to date heating degree days 72 63  
Since 1 July heating degree days 445 654  
Cooling Degree Days 0 0  
Month to date cooling degree days 0 0  
Year to date cooling degree days 17 9  
Growing Degree Days 8 (Base 50)    
Moisture  
Dew Point 51 °F    
Average Humidity 75    
Maximum Humidity 93    
Minimum Humidity 56    
Precipitation  
Precipitation 0.00 in 0.14 in 1.92 in (1978)
Month to date precipitation 0.23 1.13  
Year to date precipitation 0.23 4.25  
Since 1 July precipitation 1.20  
Sea Level Pressure  
Sea Level Pressure 30.17 in    
Wind  
Wind Speed 1 mph (NNE)    
Max Wind Speed 9 mph    
Max Gust Speed 15 mph    
Visibility 8 miles    
Events      
T = Trace of Precipitation, MM = Missing Value Source: NWS Daily Summary

Daily Weather History Graph

Daily Weather History Graph

Search for Another Location

Airport or City:

Trip Planner

Search our weather history database for the weather conditions in past years. The results will help you decide how hot, cold, wet, or windy it might be!

Date:

Astronomy

Feb. 09, 2014 Rise Set
Actual Time 6:43 AM PST 5:31 PM PST
Civil Twilight 6:17 AM PST 5:57 PM PST
Nautical Twilight 5:48 AM PST 6:26 PM PST
Astronomical Twilight 5:18 AM PST 6:56 PM PST
Moon 1:19 PM PST (2/9) 2:47 AM PST (2/9)
Length of Visible Light 11h 39m
Length of Day
10h 47m
Waxing Gibbous, 78% of the Moon is Illuminated
Feb 9
Waxing Gibbous
Feb 14
Full
Feb 22
Last Quarter
Mar 1
New
Mar 8
First Quarter

Hourly Weather History & Observations

Time (PST) Temp. Dew Point Humidity Pressure Visibility Wind Dir Wind Speed Gust Speed Precip Events Conditions
12:47 AM 55.9 °F 51.1 °F 84% 30.22 in 10.0 mi Calm Calm - N/A   Overcast
1:05 AM 53.6 °F 51.8 °F 94% 30.22 in 10.0 mi Calm Calm - N/A   Scattered Clouds
1:11 AM 53.6 °F 51.8 °F 94% 30.23 in 10.0 mi Calm Calm - N/A   Mostly Cloudy
1:47 AM 55.0 °F 51.1 °F 86% 30.22 in 10.0 mi Calm Calm - N/A   Overcast
2:47 AM 55.9 °F 51.1 °F 84% 30.21 in 10.0 mi Calm Calm - N/A   Overcast
3:47 AM 55.9 °F 51.1 °F 84% 30.21 in 10.0 mi Calm Calm - N/A   Overcast
4:47 AM 57.0 °F 51.1 °F 81% 30.19 in 8.0 mi Calm Calm - N/A   Overcast
5:47 AM 57.0 °F 50.0 °F 77% 30.18 in 8.0 mi Calm Calm - N/A   Overcast
6:47 AM 57.0 °F 50.0 °F 77% 30.19 in 7.0 mi Calm Calm - N/A   Overcast
7:47 AM 57.0 °F 50.0 °F 77% 30.20 in 4.0 mi Calm Calm - N/A   Haze
8:47 AM 57.9 °F 50.0 °F 75% 30.21 in 5.0 mi Calm Calm - N/A   Haze
9:47 AM 59.0 °F 50.0 °F 72% 30.21 in 5.0 mi Calm Calm - N/A   Haze
10:47 AM 60.1 °F 48.9 °F 67% 30.20 in 5.0 mi Calm Calm - N/A   Haze
10:54 AM 60.8 °F 50.0 °F 68% 30.20 in 6.0 mi Calm Calm - N/A   Haze
11:29 AM 62.6 °F 50.0 °F 63% 30.19 in 6.0 mi Calm Calm - N/A   Haze
11:47 AM 62.1 °F 48.9 °F 62% 30.18 in 7.0 mi NNE 3.5 mph - N/A   Overcast
12:47 PM 64.9 °F 48.0 °F 54% 30.14 in 8.0 mi Calm Calm - N/A   Overcast
1:47 PM 64.0 °F 48.9 °F 58% 30.12 in 7.0 mi Variable 3.5 mph - N/A   Scattered Clouds
2:47 PM 64.9 °F 51.1 °F 61% 30.12 in 10.0 mi Variable 3.5 mph - N/A   Partly Cloudy
3:47 PM 64.0 °F 51.1 °F 63% 30.09 in 10.0 mi Calm Calm - N/A   Clear
4:47 PM 61.0 °F 51.1 °F 70% 30.09 in 10.0 mi Variable 3.5 mph - N/A   Clear
5:47 PM 59.0 °F 51.1 °F 75% 30.11 in 10.0 mi Calm Calm - N/A   Clear
6:47 PM 57.9 °F 51.1 °F 78% 30.13 in 10.0 mi Calm Calm - N/A   Clear
7:47 PM 57.9 °F 51.1 °F 78% 30.12 in 10.0 mi Calm Calm - N/A   Clear
8:47 PM 57.0 °F 51.1 °F 81% 30.14 in 10.0 mi Calm Calm - N/A   Clear
9:47 PM 57.0 °F 51.1 °F 81% 30.13 in 10.0 mi Calm Calm - N/A   Clear
10:47 PM 57.0 °F 52.0 °F 83% 30.12 in 10.0 mi Calm Calm - N/A   Clear
11:47 PM 55.9 °F 51.1 °F 84% 30.14 in 8.0 mi Calm Calm - N/A   Clear